Hollywood, MD

8:59 AM EST on February 26, 2017 (GMT -0500)
Leonardtown

Weather History for K2W6 - March, 2013

Change the Weather History Date:

Wednesday, March 20, 2013

  Actual Average (KNHK) Record (KNHK)
Temperature  
Mean Temperature 40 °F -  
Max Temperature 51 °F 56 °F 73 °F (1985)
Min Temperature 30 °F 36 °F 25 °F (1981)
Degree Days  
Heating Degree Days 24    
Moisture  
Dew Point 13 °F    
Average Humidity 30    
Maximum Humidity 64    
Minimum Humidity 17    
Precipitation  
Precipitation 0.00 in - - ()
Sea Level Pressure  
Sea Level Pressure 29.92 in    
Wind  
Wind Speed 9 mph (WSW)    
Max Wind Speed 17 mph    
Max Gust Speed 24 mph    
Visibility 10 miles    
Events      
Averages and records for this station are not official NWS values.
T = Trace of Precipitation, MM = Missing Value Source: NWS Daily Summary

Daily Weather History Graph

Daily Weather History Graph

Search for Another Location

Airport or City:

Trip Planner

Search our weather history database for the weather conditions in past years. The results will help you decide how hot, cold, wet, or windy it might be!

Date:

Astronomy

Mar. 20, 2013 Rise Set
Actual Time 7:09 AM EDT 7:18 PM EDT
Civil Twilight 6:43 AM EDT 7:44 PM EDT
Nautical Twilight 6:12 AM EDT 8:15 PM EDT
Astronomical Twilight 5:40 AM EDT 8:47 PM EDT
Moon 12:55 PM EDT (3/20) 2:43 AM EDT (3/20)
Length of Visible Light 13h 01m
Length of Day
12h 09m
First Quarter, 59% of the Moon is Illuminated
Mar 20
First Quarter
Mar 27
Full
Apr 3
Last Quarter
Apr 10
New
Apr 18
First Quarter

Hourly Weather History & Observations

Time (EDT) Temp. Windchill Dew Point Humidity Pressure Visibility Wind Dir Wind Speed Gust Speed Precip Events Conditions
12:03 AM 46.4 °F 39.5 °F 5.0 °F 18% 29.93 in 10.0 mi West 17.3 mph 24.2 mph N/A   Clear
12:23 AM 46.4 °F 41.9 °F 3.2 °F 17% 29.94 in 10.0 mi West 9.2 mph 20.7 mph N/A   Clear
12:43 AM 44.6 °F 39.2 °F 8.6 °F 23% 29.95 in 10.0 mi West 10.4 mph - N/A   Clear
1:03 AM 44.6 °F 39.2 °F 8.6 °F 23% 29.95 in 10.0 mi West 10.4 mph 16.1 mph N/A   Clear
1:23 AM 44.6 °F 39.7 °F 8.6 °F 23% 29.96 in 10.0 mi West 9.2 mph - N/A   Clear
1:43 AM 44.6 °F 37.2 °F 8.6 °F 23% 29.97 in 10.0 mi West 17.3 mph 24.2 mph N/A   Clear
2:03 AM 44.6 °F 39.2 °F 5.0 °F 20% 29.98 in 10.0 mi West 10.4 mph 23.0 mph N/A   Clear
2:23 AM 42.8 °F 38.0 °F 5.0 °F 21% 29.98 in 10.0 mi WNW 8.1 mph - N/A   Clear
3:03 AM 42.8 °F 37.5 °F 5.0 °F 21% 29.99 in 10.0 mi WNW 9.2 mph - N/A   Clear
3:23 AM 41.0 °F 36.4 °F 5.0 °F 23% 29.98 in 10.0 mi WNW 6.9 mph - N/A   Clear
4:04 AM 41.0 °F 38.0 °F 6.8 °F 24% 29.97 in 10.0 mi WNW 4.6 mph - N/A   Clear
4:24 AM 39.2 °F 37.0 °F 6.8 °F 26% 29.97 in 10.0 mi WNW 3.5 mph - N/A   Clear
4:44 AM 37.4 °F - 8.6 °F 30% 29.97 in 10.0 mi Calm Calm - N/A   Clear
5:04 AM 37.4 °F - 8.6 °F 30% 29.98 in 10.0 mi Calm Calm - N/A   Clear
5:24 AM 33.8 °F 29.6 °F 10.4 °F 38% 29.98 in 10.0 mi WNW 4.6 mph - N/A   Clear
5:44 AM 33.8 °F 30.8 °F 12.2 °F 41% 29.99 in 10.0 mi West 3.5 mph - N/A   Clear
6:04 AM 33.8 °F - 12.2 °F 41% 29.99 in 10.0 mi Calm Calm - N/A   Clear
6:24 AM 32.0 °F - 15.8 °F 51% 29.99 in 10.0 mi Calm Calm - N/A   Clear
6:44 AM 30.2 °F - 15.8 °F 55% 30.00 in 10.0 mi Calm Calm - N/A   Clear
7:24 AM 30.2 °F - 17.6 °F 60% 30.01 in 10.0 mi Calm Calm - N/A   Clear
8:04 AM 32.0 °F - 21.2 °F 64% 30.02 in 10.0 mi Calm Calm - N/A   Clear
8:24 AM 35.6 °F 31.7 °F 17.6 °F 48% 30.02 in 10.0 mi West 4.6 mph - N/A   Clear
8:44 AM 41.0 °F 39.0 °F 14.0 °F 33% 30.02 in 10.0 mi WSW 3.5 mph - N/A   Clear
9:04 AM 41.0 °F 37.1 °F 12.2 °F 31% 30.02 in 10.0 mi WSW 5.8 mph - N/A   Clear
9:24 AM 41.0 °F 34.7 °F 12.2 °F 31% 30.02 in 10.0 mi West 10.4 mph - N/A   Clear
9:44 AM 42.8 °F 36.6 °F 12.2 °F 29% 30.02 in 10.0 mi West 11.5 mph - N/A   Clear
10:04 AM 42.8 °F 37.0 °F 10.4 °F 27% 30.02 in 10.0 mi West 10.4 mph 17.3 mph N/A   Clear
10:24 AM 44.6 °F 38.8 °F 12.2 °F 27% 30.03 in 10.0 mi West 11.5 mph - N/A   Clear
10:44 AM 44.6 °F 39.2 °F 12.2 °F 27% 30.02 in 10.0 mi West 10.4 mph 18.4 mph N/A   Clear
11:04 AM 44.6 °F 38.1 °F 12.2 °F 27% 30.02 in 10.0 mi West 13.8 mph 17.3 mph N/A   Clear
11:24 AM 46.4 °F 39.8 °F 10.4 °F 23% 30.02 in 10.0 mi West 16.1 mph - N/A   Clear
12:05 PM 46.4 °F 42.4 °F 12.2 °F 25% 30.01 in 10.0 mi West 8.1 mph 24.2 mph N/A   Clear
12:25 PM 46.4 °F 40.7 °F 12.2 °F 25% 30.00 in 10.0 mi WSW 12.7 mph 19.6 mph N/A   Clear
12:45 PM 48.2 °F - 14.0 °F 25% 29.99 in 10.0 mi West 15.0 mph 19.6 mph N/A   Clear
1:05 PM 48.2 °F - 12.2 °F 24% 29.98 in 10.0 mi West 15.0 mph 21.9 mph N/A   Clear
1:25 PM 48.2 °F - 12.2 °F 24% 29.97 in 10.0 mi WSW 9.2 mph 19.6 mph N/A   Clear
1:45 PM 50.0 °F - 12.2 °F 22% 29.96 in 10.0 mi WSW 16.1 mph 21.9 mph N/A   Clear
2:05 PM 50.0 °F - 12.2 °F 22% 29.95 in 10.0 mi SW 17.3 mph 24.2 mph N/A   Clear
2:25 PM 50.0 °F - 12.2 °F 22% 29.93 in 10.0 mi WSW 16.1 mph 23.0 mph N/A   Clear
2:45 PM 51.8 °F - 14.0 °F 22% 29.91 in 10.0 mi SW 9.2 mph 18.4 mph N/A   Clear
3:05 PM 50.0 °F - 12.2 °F 22% 29.90 in 10.0 mi West 9.2 mph - N/A   Clear
3:25 PM 51.8 °F - 12.2 °F 21% 29.89 in 10.0 mi SW 12.7 mph 23.0 mph N/A   Clear
4:05 PM 51.8 °F - 10.4 °F 19% 29.87 in 10.0 mi WSW 11.5 mph 19.6 mph N/A   Clear
4:25 PM 51.8 °F - 10.4 °F 19% 29.86 in 10.0 mi West 11.5 mph 18.4 mph N/A   Clear
4:45 PM 51.8 °F - 8.6 °F 18% 29.85 in 10.0 mi SSW 9.2 mph 16.1 mph N/A   Clear
5:05 PM 51.8 °F - 10.4 °F 19% 29.84 in 10.0 mi WSW 9.2 mph 17.3 mph N/A   Scattered Clouds
5:25 PM 51.8 °F - 8.6 °F 18% 29.83 in 10.0 mi SW 10.4 mph - N/A   Mostly Cloudy
5:45 PM 51.8 °F - 14.0 °F 22% 29.83 in 10.0 mi South 8.1 mph - N/A   Mostly Cloudy
6:05 PM 50.0 °F - 15.8 °F 26% 29.82 in 10.0 mi South 4.6 mph - N/A   Mostly Cloudy
6:25 PM 48.2 °F - 17.6 °F 30% 29.82 in 10.0 mi SE 5.8 mph - N/A   Mostly Cloudy
6:45 PM 48.2 °F - 19.4 °F 32% 29.81 in 10.0 mi ESE 4.6 mph - N/A   Overcast
7:05 PM 46.4 °F 44.3 °F 21.2 °F 37% 29.81 in 10.0 mi ESE 4.6 mph - N/A   Overcast
7:25 PM 46.4 °F - 21.2 °F 37% 29.81 in 10.0 mi Calm Calm - N/A   Mostly Cloudy
7:45 PM 44.6 °F - 23.0 °F 43% 29.81 in 10.0 mi Calm Calm - N/A   Overcast
8:05 PM 42.8 °F 41.1 °F 23.0 °F 46% 29.81 in 10.0 mi SSE 3.5 mph - N/A   Scattered Clouds
8:25 PM 42.8 °F - 23.0 °F 46% 29.81 in 10.0 mi Calm Calm - N/A   Scattered Clouds
8:46 PM 42.8 °F - 23.0 °F 46% 29.81 in 10.0 mi Calm Calm - N/A   Scattered Clouds
9:06 PM 42.8 °F - 21.2 °F 42% 29.80 in 10.0 mi Calm Calm - N/A   Mostly Cloudy
9:26 PM 42.8 °F - 19.4 °F 39% 29.80 in 10.0 mi Calm Calm - N/A   Mostly Cloudy
9:46 PM 44.6 °F 43.1 °F 17.6 °F 34% 29.80 in 10.0 mi SSW 3.5 mph - N/A   Mostly Cloudy
10:06 PM 44.6 °F 43.1 °F 17.6 °F 34% 29.80 in 10.0 mi South 3.5 mph - N/A   Scattered Clouds
10:26 PM 44.6 °F 43.1 °F 17.6 °F 34% 29.79 in 10.0 mi South 3.5 mph - N/A   Scattered Clouds
10:46 PM 44.6 °F 42.2 °F 19.4 °F 37% 29.79 in 10.0 mi SSW 4.6 mph - N/A   Scattered Clouds
11:06 PM 44.6 °F 39.7 °F 17.6 °F 34% 29.78 in 10.0 mi SSW 9.2 mph - N/A   Overcast
11:26 PM 44.6 °F - 17.6 °F 34% 29.78 in 10.0 mi Calm Calm - N/A   Overcast
11:46 PM 44.6 °F 40.7 °F 19.4 °F 37% 29.78 in 10.0 mi SW 6.9 mph - N/A   Overcast